Timestamp (UTC),Temp / °C,Chill / °C,HIndex / °C,Humid%,Dewpt / °C,Wind / ms¯¹,HiWind / ms¯¹,Winddir / °,Rain / mm,RainRate / mmhr¯¹,Pressure / hPa,InsideTemp / °C,InsideHumid%,Radiation / Wm¯²,UV
2015-07-28 00:00:00,12.1,12.1,12.1,92.0,10.8,1.8,3.6,0,0.0,0.0,991.0,22.6,53.0,0,0
2015-07-28 00:05:00,12.0,12.0,12.0,92.0,10.7,0.4,2.2,315,0.0,0.0,991.0,22.6,52.0,0,0
2015-07-28 00:10:00,11.9,11.9,11.9,92.0,10.7,0.9,2.7,292.5,0.0,0.0,990.9,22.6,52.0,0,0
2015-07-28 00:15:00,11.9,11.9,11.9,92.0,10.7,0.9,3.1,337.5,0.0,0.0,990.8,22.6,52.0,0,0
2015-07-28 00:20:00,11.9,11.9,11.9,92.0,10.6,0.9,3.6,315,0.0,0.0,991.0,22.6,52.0,0,0
2015-07-28 00:25:00,11.8,11.8,11.8,92.0,10.6,0.9,3.1,315,0.0,0.0,990.9,22.6,52.0,0,0
2015-07-28 00:30:00,11.8,11.8,11.8,92.0,10.6,1.3,4.0,337.5,0.0,0.0,991.0,22.6,52.0,0,0
2015-07-28 00:35:00,11.8,11.8,11.8,92.0,10.5,1.3,2.7,22.5,0.0,0.0,990.8,22.6,52.0,0,0
2015-07-28 00:40:00,11.8,11.8,11.8,92.0,10.5,0.9,3.1,315,0.1,0.0,990.8,22.6,52.0,0,0
2015-07-28 00:45:00,11.8,11.8,11.8,92.0,10.5,0.9,2.7,337.5,0.0,0.0,990.8,22.6,52.0,0,0
2015-07-28 00:50:00,11.8,11.8,11.8,92.0,10.5,1.3,3.1,315,0.0,0.0,990.9,22.6,52.0,0,0
2015-07-28 00:55:00,11.7,11.7,11.7,92.0,10.5,1.3,3.1,0,0.0,0.0,990.9,22.6,52.0,0,0
2015-07-28 01:00:00,11.7,11.7,11.7,92.0,10.5,0.9,2.7,0,0.0,0.0,990.9,22.6,52.0,0,0
2015-07-28 01:05:00,11.7,11.7,11.7,92.0,10.4,0.9,2.7,315,0.0,0.0,990.9,22.6,52.0,0,0
2015-07-28 01:10:00,11.7,11.7,11.7,92.0,10.4,1.8,3.1,337.5,0.0,0.0,990.8,22.6,52.0,0,0
2015-07-28 01:15:00,11.6,11.6,11.6,92.0,10.4,1.3,3.1,315,0.0,0.0,990.8,22.6,52.0,0,0
2015-07-28 01:20:00,11.6,11.6,11.6,92.0,10.4,1.3,3.6,315,0.0,0.0,990.8,22.6,52.0,0,0
2015-07-28 01:25:00,11.6,11.6,11.6,92.0,10.3,0.4,2.2,337.5,0.0,0.0,990.8,22.6,52.0,0,0
2015-07-28 01:30:00,11.6,11.6,11.6,92.0,10.3,0.4,2.7,337.5,0.0,0.0,990.7,22.6,52.0,0,0
2015-07-28 01:35:00,11.6,11.6,11.6,92.0,10.3,1.3,4.0,337.5,0.0,0.0,990.7,22.6,52.0,0,0
2015-07-28 01:40:00,11.5,11.5,11.5,92.0,10.2,1.3,3.6,0,0.0,0.0,990.7,22.6,52.0,0,0
2015-07-28 01:45:00,11.4,11.4,11.4,92.0,10.2,1.3,3.6,315,0.1,0.0,990.7,22.6,52.0,0,0
2015-07-28 01:50:00,11.4,11.4,11.4,92.0,10.1,1.3,3.6,315,0.0,0.0,990.7,22.6,52.0,0,0
2015-07-28 01:55:00,11.3,11.3,11.3,92.0,10.1,1.3,3.6,315,0.1,0.6,990.7,22.6,52.0,0,0
2015-07-28 02:00:00,11.3,11.3,11.3,92.0,10.0,1.3,4.0,337.5,0.0,0.6,990.8,22.6,52.0,0,0
2015-07-28 02:05:00,11.2,11.2,11.2,92.0,10.0,0.9,3.1,337.5,0.0,0.5,990.7,22.6,52.0,0,0
2015-07-28 02:10:00,11.2,11.2,11.2,92.0,10.0,1.8,4.5,337.5,0.1,0.5,990.7,22.6,52.0,0,0
2015-07-28 02:15:00,11.2,11.2,11.2,92.0,9.9,1.3,4.0,337.5,0.1,1.9,990.7,22.6,52.0,0,0
2015-07-28 02:20:00,11.2,11.2,11.2,92.0,9.9,1.3,2.7,315,0.1,1.5,990.7,22.6,52.0,0,0
2015-07-28 02:25:00,11.2,11.2,11.2,92.0,9.9,0.4,2.7,67.5,0.0,0.7,990.7,22.6,52.0,0,0
2015-07-28 02:30:00,11.2,11.2,11.2,92.0,9.9,0.9,3.6,45,0.1,0.7,990.7,22.6,52.0,0,0
2015-07-28 02:35:00,11.1,11.1,11.1,92.0,9.9,0.9,2.7,22.5,0.1,1.2,990.7,22.6,52.0,0,0
2015-07-28 02:40:00,11.1,11.1,11.1,92.0,9.9,0.9,3.1,45,0.1,1.2,990.7,22.6,52.0,0,0
2015-07-28 02:45:00,11.1,11.1,11.1,93.0,10.0,0.9,3.1,315,0.0,1.0,990.6,22.4,52.0,0,0
2015-07-28 02:50:00,11.1,11.1,11.1,93.0,10.0,0.9,2.2,315,0.0,0.5,990.7,22.4,52.0,0,0
2015-07-28 02:55:00,11.1,11.1,11.1,93.0,10.0,0.9,2.7,292.5,0.0,0.4,990.7,22.4,52.0,0,0
2015-07-28 03:00:00,11.1,11.1,11.1,93.0,10.0,0.9,2.7,315,0.0,0.0,990.9,22.4,52.0,0,0
2015-07-28 03:05:00,11.1,11.1,11.1,93.0,10.0,0.4,2.7,247.5,0.0,0.0,991.0,22.4,52.0,0,0
2015-07-28 03:10:00,11.1,11.1,11.1,93.0,10.0,0.9,2.7,247.5,0.2,1.8,991.1,22.4,52.0,0,0
2015-07-28 03:15:00,11.1,11.1,11.1,93.0,10.0,0.9,2.7,270,0.0,1.1,991.1,22.4,52.0,0,0
2015-07-28 03:20:00,11.1,11.1,11.1,93.0,10.0,1.8,4.9,315,0.1,1.1,991.1,22.4,52.0,0,0
2015-07-28 03:25:00,11.1,11.1,11.1,93.0,10.0,0.0,1.8,0,0.0,0.7,991.2,22.4,52.0,0,0
2015-07-28 03:30:00,11.1,11.1,11.1,93.0,10.0,0.4,2.2,315,0.0,0.5,991.1,22.4,52.0,0,0
2015-07-28 03:35:00,11.0,11.0,11.0,93.0,9.9,0.9,2.2,315,0.1,0.5,991.1,22.4,52.0,0,0
2015-07-28 03:40:00,11.0,11.0,11.0,93.0,9.9,0.0,1.8,0,0.0,0.4,991.3,22.4,52.0,0,0
2015-07-28 03:45:00,11.0,11.0,11.0,93.0,9.9,0.4,1.8,315,0.0,0.4,991.2,22.4,52.0,0,0
2015-07-28 03:50:00,11.0,11.0,11.0,93.0,9.9,0.4,1.8,315,0.1,0.4,991.2,22.4,52.0,0,0
2015-07-28 03:55:00,11.0,11.0,11.0,93.0,9.9,0.4,2.2,315,0.0,0.4,991.2,22.4,52.0,0,0
2015-07-28 04:00:00,11.0,11.0,11.0,93.0,9.9,0.9,2.2,315,0.1,0.6,991.1,22.4,52.0,0,0
2015-07-28 04:05:00,11.0,11.0,11.0,93.0,9.9,0.4,2.2,315,0.0,0.6,991.2,22.4,52.0,0,0
2015-07-28 04:10:00,11.0,11.0,11.0,93.0,9.9,0.4,2.2,315,0.0,0.5,991.2,22.4,52.0,0,0
2015-07-28 04:15:00,10.9,10.9,10.9,93.0,9.9,0.4,2.2,315,0.0,0.4,991.2,22.4,52.0,0,0
2015-07-28 04:20:00,10.9,10.9,10.9,93.0,9.9,0.4,2.2,315,0.0,0.0,991.3,22.4,52.0,0,0
2015-07-28 04:25:00,10.9,10.9,10.9,93.0,9.9,0.4,2.2,315,0.0,0.0,991.3,22.4,52.0,0,0
2015-07-28 04:30:00,10.9,10.9,10.9,93.0,9.9,0.4,1.8,315,0.1,0.0,991.4,22.4,52.0,0,0
2015-07-28 04:35:00,10.9,10.9,10.9,93.0,9.9,0.4,1.3,315,0.1,1.0,991.3,22.4,52.0,0,0
2015-07-28 04:40:00,10.9,10.9,10.9,93.0,9.8,0.4,2.2,315,0.0,0.8,991.4,22.4,52.0,0,0
2015-07-28 04:45:00,10.9,10.9,10.9,93.0,9.8,0.4,2.2,315,0.1,0.8,991.4,22.4,52.0,0,0
2015-07-28 04:50:00,10.9,10.9,10.9,93.0,9.8,0.9,2.7,292.5,0.0,0.5,991.5,22.4,52.0,0,0
2015-07-28 04:55:00,10.8,10.8,10.8,93.0,9.7,1.3,2.2,292.5,0.0,0.5,991.4,22.4,52.0,5,0
2015-07-28 05:00:00,10.8,10.8,10.8,93.0,9.7,0.0,0.9,0,0.1,0.5,991.4,22.4,52.0,7,0
2015-07-28 05:05:00,10.8,10.8,10.8,93.0,9.7,0.4,1.8,292.5,0.0,0.5,991.4,22.4,52.0,8,0
2015-07-28 05:10:00,10.8,10.8,10.8,93.0,9.7,0.4,1.8,292.5,0.0,0.4,991.4,22.4,52.0,8,0
2015-07-28 05:15:00,10.8,10.8,10.8,93.0,9.7,0.9,2.2,315,0.0,0.0,991.5,22.4,51.0,10,0
2015-07-28 05:20:00,10.8,10.8,10.8,93.0,9.7,0.9,2.7,315,0.1,0.0,991.6,22.4,51.0,14,0
2015-07-28 05:25:00,10.8,10.8,10.8,93.0,9.7,0.9,2.7,0,0.0,0.0,991.6,22.3,51.0,15,0
2015-07-28 05:30:00,10.8,10.8,10.8,93.0,9.7,0.0,2.2,0,0.0,0.0,991.6,22.3,51.0,12,0
2015-07-28 05:35:00,10.8,10.8,10.8,93.0,9.7,0.0,0.9,0,0.0,0.0,991.7,22.2,51.0,11,0
2015-07-28 05:40:00,10.8,10.8,10.8,93.0,9.7,0.4,1.8,0,0.0,0.0,991.8,22.1,51.0,12,0
2015-07-28 05:45:00,10.8,10.8,10.8,93.0,9.7,0.0,1.8,0,0.0,0.0,991.8,22.1,51.0,20,0
2015-07-28 05:50:00,10.8,10.8,10.8,93.0,9.7,0.4,1.8,0,0.0,0.0,991.9,22.0,51.0,13,0
2015-07-28 05:55:00,10.8,10.8,10.8,93.0,9.7,0.4,1.8,337.5,0.1,0.0,991.8,21.9,51.0,21,0
2015-07-28 06:00:00,10.8,10.8,10.8,93.0,9.7,0.4,1.8,337.5,0.0,0.0,991.8,21.9,51.0,32,0
2015-07-28 06:05:00,10.8,10.8,10.8,93.0,9.7,0.0,0.4,0,0.0,0.0,991.7,21.8,51.0,37,0
2015-07-28 06:10:00,10.8,10.8,10.8,93.0,9.7,0.4,1.8,337.5,0.0,0.0,991.9,21.7,51.0,33,0
2015-07-28 06:15:00,10.8,10.8,10.8,93.0,9.7,0.0,1.3,0,0.1,0.0,991.8,21.7,51.0,41,0
2015-07-28 06:20:00,10.8,10.8,10.8,93.0,9.7,0.0,0.9,0,0.0,0.0,991.8,21.6,51.0,56,0.1
2015-07-28 06:25:00,10.8,10.8,10.8,93.0,9.7,0.0,1.3,0,0.1,0.5,991.8,21.6,51.0,54,0.3
2015-07-28 06:30:00,10.8,10.8,10.8,93.0,9.7,0.0,0.0,0,0.0,0.5,991.8,21.6,51.0,44,0
2015-07-28 06:35:00,10.8,10.8,10.8,93.0,9.7,0.0,0.4,0,0.1,0.6,991.9,21.5,51.0,42,0
2015-07-28 06:40:00,10.9,10.9,10.9,93.0,9.8,0.0,0.4,0,0.0,0.6,992.0,21.5,51.0,41,0
2015-07-28 06:45:00,10.9,10.9,10.9,93.0,9.9,0.0,0.4,0,0.0,0.6,991.9,21.5,51.0,43,0
2015-07-28 06:50:00,10.9,10.9,10.9,93.0,9.9,0.4,1.8,337.5,0.0,0.4,991.9,21.4,51.0,54,0
2015-07-28 06:55:00,10.9,10.9,10.9,93.0,9.9,0.4,1.8,337.5,0.0,0.0,991.9,21.4,51.0,77,0.6
2015-07-28 07:00:00,10.9,10.9,10.9,93.0,9.9,0.4,2.2,22.5,0.0,0.0,992.0,21.4,51.0,79,0.7
2015-07-28 07:05:00,11.0,11.0,11.0,93.0,9.9,0.4,2.2,0,0.0,0.0,992.0,21.4,51.0,71,0.6
2015-07-28 07:10:00,11.0,11.0,11.0,93.0,9.9,0.4,2.7,337.5,0.0,0.0,992.1,21.3,51.0,54,0.5
2015-07-28 07:15:00,11.0,11.0,11.0,93.0,9.9,0.4,2.2,337.5,0.0,0.0,992.2,21.3,51.0,40,0
2015-07-28 07:20:00,11.0,11.0,11.0,93.0,9.9,0.9,2.2,22.5,0.0,0.0,992.2,21.3,51.0,59,0.4
2015-07-28 07:25:00,11.0,11.0,11.0,93.0,9.9,0.9,2.2,45,0.1,0.0,992.3,21.2,52.0,74,0.7
2015-07-28 07:30:00,11.0,11.0,11.0,93.0,9.9,1.3,2.7,337.5,0.0,0.0,992.4,21.2,52.0,103,0.9
2015-07-28 07:35:00,11.0,11.0,11.0,93.0,9.9,0.4,0.9,337.5,0.1,0.5,992.3,21.2,52.0,92,0.9
2015-07-28 07:40:00,11.0,11.0,11.0,93.0,9.9,0.4,1.8,337.5,0.0,0.5,992.4,21.2,52.0,118,1
2015-07-28 07:45:00,11.1,11.1,11.1,93.0,10.0,0.4,2.2,337.5,0.0,0.5,992.4,21.2,52.0,101,0.9
2015-07-28 07:50:00,11.2,11.2,11.2,93.0,10.1,0.4,2.2,337.5,0.1,0.5,992.3,21.2,52.0,125,1
2015-07-28 07:55:00,11.3,11.3,11.3,93.0,10.2,0.4,2.2,337.5,0.0,0.4,992.4,21.2,52.0,183,1.2
2015-07-28 08:00:00,11.3,11.3,11.3,93.0,10.2,0.4,2.2,337.5,0.0,0.4,992.4,21.2,52.0,152,1.1
2015-07-28 08:05:00,11.4,11.4,11.4,93.0,10.3,1.3,3.1,315,0.0,0.4,992.4,21.2,52.0,163,1.3
2015-07-28 08:10:00,11.4,11.4,11.4,93.0,10.3,1.8,3.6,337.5,0.0,0.0,992.5,21.2,52.0,148,1.2
2015-07-28 08:15:00,11.4,11.4,11.4,93.0,10.3,1.3,3.1,337.5,0.0,0.0,992.4,21.2,52.0,97,1
2015-07-28 08:20:00,11.3,11.3,11.3,93.0,10.2,1.8,3.1,0,0.0,0.0,992.4,21.2,52.0,113,1
2015-07-28 08:25:00,11.3,11.3,11.3,93.0,10.2,1.8,3.1,0,0.0,0.0,992.5,21.2,52.0,148,1.3
2015-07-28 08:30:00,11.3,11.3,11.3,93.0,10.2,1.3,3.6,45,0.0,0.0,992.7,21.2,52.0,122,1.1
2015-07-28 08:35:00,11.3,11.3,11.3,93.0,10.2,1.3,3.6,315,0.0,0.0,992.8,21.1,52.0,76,0.9
2015-07-28 08:40:00,11.3,11.3,11.3,93.0,10.2,2.2,5.8,315,0.0,0.0,992.8,21.1,52.0,60,0.7
2015-07-28 08:45:00,11.3,11.3,11.3,93.0,10.2,2.7,4.9,315,0.0,0.0,992.8,21.1,52.0,76,0.9
2015-07-28 08:50:00,11.2,11.2,11.2,93.0,10.1,3.1,4.9,337.5,0.0,0.0,993.0,21.1,52.0,88,1
2015-07-28 08:55:00,11.2,11.2,11.2,93.0,10.1,1.8,4.5,315,0.0,0.0,993.1,21.1,52.0,83,0.9
2015-07-28 09:00:00,11.2,11.2,11.2,93.0,10.1,2.7,5.8,315,0.0,0.0,993.2,20.9,52.0,76,0.9
2015-07-28 09:05:00,11.2,11.2,11.2,93.0,10.1,3.1,5.4,315,0.0,0.0,993.3,20.9,52.0,81,0.9
2015-07-28 09:10:00,11.1,11.1,11.1,93.0,10.0,2.7,4.9,315,0.0,0.0,993.3,20.9,52.0,129,1.3
2015-07-28 09:15:00,11.1,11.1,11.1,93.0,10.0,1.8,4.9,0,0.0,0.0,993.3,20.9,52.0,176,1.7
2015-07-28 09:20:00,11.2,11.2,11.2,93.0,10.1,1.3,3.1,315,0.0,0.0,993.4,20.9,52.0,182,1.7
2015-07-28 09:25:00,11.3,11.3,11.3,93.0,10.2,1.8,3.6,337.5,0.0,0.0,993.5,20.9,52.0,240,1.9
2015-07-28 09:30:00,11.4,11.4,11.4,93.0,10.3,2.2,4.5,337.5,0.1,0.0,993.5,21.1,52.0,268,2.2
2015-07-28 09:35:00,11.4,11.4,11.4,93.0,10.4,2.2,4.5,315,0.0,0.0,993.6,21.1,52.0,251,2.1
2015-07-28 09:40:00,11.5,11.5,11.5,93.0,10.4,2.7,4.5,315,0.0,0.0,993.6,21.2,52.0,292,2.3
2015-07-28 09:45:00,11.6,11.6,11.6,93.0,10.5,2.7,5.4,315,0.0,0.0,993.7,21.2,52.0,203,1.6
2015-07-28 09:50:00,11.5,11.5,11.5,93.0,10.4,2.7,5.4,315,0.0,0.0,993.7,21.2,52.0,185,1.5
2015-07-28 09:55:00,11.4,11.4,11.4,93.0,10.4,2.7,4.0,315,0.0,0.0,993.8,21.2,52.0,151,1.3
2015-07-28 10:00:00,11.4,11.4,11.4,93.0,10.3,2.7,5.4,292.5,0.0,0.0,994.0,21.2,52.0,132,1
2015-07-28 10:05:00,11.3,11.3,11.3,93.0,10.2,2.2,4.5,337.5,0.0,0.0,994.0,21.2,52.0,211,1.8
2015-07-28 10:10:00,11.3,11.3,11.3,93.0,10.2,2.7,4.9,315,0.0,0.0,994.1,21.2,52.0,199,1.8
2015-07-28 10:15:00,11.3,11.3,11.3,93.0,10.2,2.2,4.9,315,0.0,0.0,994.1,21.2,52.0,240,2.1
2015-07-28 10:20:00,11.5,11.5,11.5,93.0,10.4,2.2,4.0,337.5,0.0,0.0,994.2,21.2,52.0,339,2.8
2015-07-28 10:25:00,11.6,11.6,11.6,93.0,10.5,2.2,4.0,0,0.0,0.0,994.1,21.3,52.0,320,2.8
2015-07-28 10:30:00,11.7,11.7,11.7,92.0,10.4,2.2,4.5,315,0.0,0.0,994.1,21.4,52.0,241,2.1
2015-07-28 10:35:00,11.7,11.7,11.7,93.0,10.6,1.8,3.1,292.5,0.0,0.0,994.1,21.4,51.0,246,2.3
2015-07-28 10:40:00,11.7,11.7,11.7,92.0,10.5,1.8,3.6,292.5,0.0,0.0,994.1,21.5,51.0,288,2.6
2015-07-28 10:45:00,11.8,11.8,11.8,92.0,10.6,1.8,3.6,337.5,0.0,0.0,994.2,21.5,51.0,195,1.6
2015-07-28 10:50:00,11.9,11.9,11.9,92.0,10.6,1.3,3.1,337.5,0.0,0.0,994.3,21.5,51.0,126,1
2015-07-28 10:55:00,11.9,11.9,11.9,92.0,10.7,1.3,3.1,292.5,0.0,0.0,994.4,21.4,51.0,138,1.1
2015-07-28 11:00:00,12.1,12.1,12.1,92.0,10.8,1.3,3.1,315,0.0,0.0,994.4,21.4,51.0,289,2.4
2015-07-28 11:05:00,12.6,12.6,12.6,91.0,11.1,1.3,3.1,315,0.0,0.0,994.3,21.5,51.0,538,4
2015-07-28 11:10:00,12.8,12.8,12.8,90.0,11.2,2.2,4.0,337.5,0.0,0.0,994.4,21.5,51.0,636,4.5
2015-07-28 11:15:00,13.1,13.1,13.1,88.0,11.2,2.2,4.0,337.5,0.0,0.0,994.4,21.6,51.0,349,3.7
2015-07-28 11:20:00,13.3,13.3,13.3,87.0,11.2,1.8,3.1,315,0.0,0.0,994.4,21.6,51.0,378,3.5
2015-07-28 11:25:00,13.4,13.4,13.4,85.0,10.9,2.2,3.6,315,0.0,0.0,994.4,21.6,51.0,397,3.6
2015-07-28 11:30:00,13.6,13.6,13.6,84.0,11.0,1.3,3.1,315,0.0,0.0,994.5,21.6,50.0,497,4.1
2015-07-28 11:35:00,13.8,13.8,13.8,83.0,11.0,1.8,3.6,315,0.0,0.0,994.5,21.6,50.0,326,3.1
2015-07-28 11:40:00,13.8,13.8,13.8,82.0,10.8,2.2,3.6,270,0.0,0.0,994.6,21.7,50.0,331,3.2
2015-07-28 11:45:00,13.9,13.9,13.9,82.0,10.9,1.3,3.1,292.5,0.0,0.0,994.5,21.8,50.0,287,2.5
2015-07-28 11:50:00,13.9,13.9,13.9,80.0,10.5,2.2,3.6,270,0.0,0.0,994.5,21.8,50.0,281,2.4
2015-07-28 11:55:00,14.1,14.1,14.1,81.0,10.8,0.9,3.1,270,0.0,0.0,994.5,21.9,50.0,291,2.4
2015-07-28 12:00:00,14.1,14.1,14.1,82.0,11.1,0.9,2.7,270,0.0,0.0,994.6,21.8,50.0,291,2.4
2015-07-28 12:05:00,13.8,13.8,13.8,84.0,11.2,0.4,2.2,247.5,0.0,0.0,994.6,21.8,50.0,317,2.6
2015-07-28 12:10:00,13.7,13.7,13.7,84.0,11.1,0.9,3.6,225,0.0,0.0,994.6,21.9,50.0,321,2.6
2015-07-28 12:15:00,13.4,13.4,13.4,84.0,10.8,0.9,2.7,202.5,0.0,0.0,994.6,21.9,50.0,333,2.8
2015-07-28 12:20:00,13.7,13.7,13.7,85.0,11.2,1.3,3.1,315,0.0,0.0,994.6,21.9,50.0,401,4
2015-07-28 12:25:00,14.1,14.1,14.1,84.0,11.4,1.3,2.7,247.5,0.0,0.0,994.5,22.0,50.0,441,3.9
2015-07-28 12:30:00,14.6,14.6,14.6,82.0,11.6,0.9,3.6,337.5,0.0,0.0,994.6,22.1,50.0,532,4.3
2015-07-28 12:35:00,15.0,15.0,15.0,79.0,11.4,1.8,4.5,270,0.0,0.0,994.6,22.1,50.0,455,3.9
2015-07-28 12:40:00,14.9,14.9,14.9,77.0,10.9,2.2,4.9,292.5,0.0,0.0,994.6,22.1,50.0,337,2.9
2015-07-28 12:45:00,14.8,14.8,14.8,79.0,11.2,1.3,4.5,315,0.0,0.0,994.6,22.2,50.0,279,2.5
2015-07-28 12:50:00,14.9,14.9,14.9,78.0,11.1,1.8,4.9,315,0.0,0.0,994.7,22.2,49.0,356,3.2
2015-07-28 12:55:00,15.0,15.0,15.0,77.0,11.0,2.2,4.0,270,0.0,0.0,994.8,22.3,49.0,285,2.7
2015-07-28 13:00:00,14.8,14.8,14.8,78.0,11.0,2.2,4.5,270,0.0,0.0,994.8,22.3,49.0,218,1.8
2015-07-28 13:05:00,14.6,14.6,14.6,78.0,10.8,2.2,4.9,292.5,0.0,0.0,994.7,22.3,49.0,201,1.4
2015-07-28 13:10:00,14.4,14.4,14.4,78.0,10.6,1.8,3.6,270,0.0,0.0,994.7,22.2,49.0,168,1.1
2015-07-28 13:15:00,14.3,14.3,14.3,79.0,10.7,1.3,3.1,270,0.0,0.0,994.7,22.2,49.0,189,1.3
2015-07-28 13:20:00,14.2,14.2,14.2,80.0,10.8,1.3,3.6,247.5,0.0,0.0,994.7,22.2,49.0,202,1.3
2015-07-28 13:25:00,14.2,14.2,14.2,80.0,10.8,1.3,3.6,292.5,0.0,0.0,994.7,22.1,49.0,256,1.6
2015-07-28 13:30:00,14.4,14.4,14.4,80.0,11.0,1.3,3.1,292.5,0.0,0.0,994.8,22.1,49.0,317,2.1
2015-07-28 13:35:00,14.4,14.4,14.4,79.0,10.8,2.2,4.9,337.5,0.0,0.0,994.7,22.1,49.0,232,1.5
2015-07-28 13:40:00,14.5,14.5,14.5,79.0,10.9,1.8,4.0,337.5,0.0,0.0,994.8,22.0,49.0,234,1.5
2015-07-28 13:45:00,14.5,14.5,14.5,78.0,10.7,1.8,4.5,292.5,0.0,0.0,994.8,22.0,49.0,242,1.5
2015-07-28 13:50:00,14.5,14.5,14.5,78.0,10.7,1.3,4.5,337.5,0.0,0.0,994.8,22.0,49.0,217,1.4
2015-07-28 13:55:00,14.6,14.6,14.6,78.0,10.8,1.8,3.6,247.5,0.0,0.0,994.7,22.0,49.0,255,1.9
2015-07-28 14:00:00,14.8,14.8,14.8,78.0,11.0,0.9,3.1,292.5,0.0,0.0,994.7,22.0,49.0,210,1.6
2015-07-28 14:05:00,15.0,15.0,15.0,77.0,11.0,1.3,3.6,247.5,0.0,0.0,994.8,22.0,49.0,304,2.7
2015-07-28 14:10:00,15.0,15.0,15.0,75.0,10.6,2.2,5.4,270,0.0,0.0,994.8,22.0,49.0,265,1.9
2015-07-28 14:15:00,15.0,15.0,15.0,75.0,10.6,1.8,4.9,292.5,0.0,0.0,994.9,21.9,49.0,128,0.5
2015-07-28 14:20:00,14.7,14.7,14.7,76.0,10.5,1.8,4.0,270,0.0,0.0,994.9,21.9,49.0,106,0
2015-07-28 14:25:00,14.5,14.5,14.5,78.0,10.7,0.9,2.7,292.5,0.0,0.0,994.9,21.9,49.0,150,0.5
2015-07-28 14:30:00,14.6,14.6,14.6,80.0,11.2,1.3,4.9,315,0.0,0.0,994.8,21.9,49.0,287,1.8
2015-07-28 14:35:00,15.0,15.0,15.0,78.0,11.2,1.8,4.5,270,0.0,0.0,994.8,22.0,49.0,322,3.1
2015-07-28 14:40:00,15.0,15.0,15.0,75.0,10.6,2.2,5.8,292.5,0.0,0.0,994.7,22.0,49.0,268,1.9
2015-07-28 14:45:00,15.1,15.1,15.1,75.0,10.7,2.7,5.8,225,0.0,0.0,994.8,22.0,49.0,178,1
2015-07-28 14:50:00,15.0,15.0,15.0,75.0,10.6,2.2,5.8,292.5,0.0,0.0,994.9,22.0,49.0,152,0.6
2015-07-28 14:55:00,14.7,14.7,14.7,77.0,10.7,1.8,5.8,292.5,0.0,0.0,995.0,22.0,49.0,157,0.7
2015-07-28 15:00:00,15.0,15.0,15.0,80.0,11.6,1.8,4.9,315,0.0,0.0,995.0,22.1,49.0,238,3
2015-07-28 15:05:00,15.1,15.1,15.1,76.0,10.9,2.7,5.4,225,0.0,0.0,995.1,22.1,49.0,325,2.5
2015-07-28 15:10:00,15.3,15.3,15.3,74.0,10.7,2.7,8.0,247.5,0.0,0.0,995.2,22.1,49.0,299,1.9
2015-07-28 15:15:00,15.5,15.5,15.5,73.0,10.7,3.1,6.3,247.5,0.0,0.0,995.2,22.0,48.0,450,2.6
2015-07-28 15:20:00,16.3,16.3,16.3,69.0,10.6,2.7,10.3,225,0.0,0.0,995.2,22.0,47.0,825,3.6
2015-07-28 15:25:00,16.1,16.1,16.1,68.0,10.2,3.6,6.7,270,0.0,0.0,995.3,22.0,47.0,686,2.6
2015-07-28 15:30:00,15.6,15.6,15.6,69.0,9.9,3.6,9.8,225,0.0,0.0,995.3,21.9,47.0,163,1.1
2015-07-28 15:35:00,15.2,15.2,15.2,72.0,10.2,3.1,7.2,225,0.0,0.0,995.4,21.9,47.0,169,0.9
2015-07-28 15:40:00,15.0,15.0,15.0,74.0,10.4,2.2,6.7,270,0.0,0.0,995.3,21.9,47.0,226,1.4
2015-07-28 15:45:00,14.8,14.8,14.8,75.0,10.4,1.3,4.5,225,0.0,0.0,995.3,21.8,47.0,258,1.9
2015-07-28 15:50:00,15.0,15.0,15.0,74.0,10.4,1.8,5.8,247.5,0.0,0.0,995.4,21.8,48.0,278,1.7
2015-07-28 15:55:00,14.9,14.9,14.9,73.0,10.1,2.7,6.7,225,0.0,0.0,995.2,21.7,47.0,376,2
2015-07-28 16:00:00,14.8,14.8,14.8,73.0,10.0,3.1,8.5,247.5,0.0,0.0,995.3,21.6,47.0,316,1.8
2015-07-28 16:05:00,14.7,14.7,14.7,74.0,10.1,2.2,6.3,247.5,0.0,0.0,995.4,21.6,47.0,244,1.4
2015-07-28 16:10:00,14.8,14.8,14.8,73.0,10.0,2.7,6.7,247.5,0.0,0.0,995.5,21.6,47.0,323,1.4
2015-07-28 16:15:00,15.0,15.0,15.0,74.0,10.4,1.8,8.0,225,0.0,0.0,995.5,21.5,47.0,292,1.3
2015-07-28 16:20:00,14.7,14.7,14.7,73.0,9.9,2.7,6.7,292.5,0.0,0.0,995.5,21.5,47.0,187,0.9
2015-07-28 16:25:00,14.6,14.6,14.6,74.0,10.0,2.7,7.2,292.5,0.0,0.0,995.5,21.4,48.0,192,0.7
2015-07-28 16:30:00,14.6,14.6,14.6,75.0,10.2,1.3,4.5,225,0.0,0.0,995.5,21.5,48.0,210,0.7
2015-07-28 16:35:00,14.6,14.6,14.6,74.0,10.0,2.7,6.7,225,0.0,0.0,995.5,21.5,48.0,236,0.8
2015-07-28 16:40:00,14.8,14.8,14.8,74.0,10.2,1.3,5.4,225,0.0,0.0,995.5,21.5,48.0,237,0.8
2015-07-28 16:45:00,14.8,14.8,14.8,73.0,10.0,1.8,5.8,225,0.0,0.0,995.5,21.5,48.0,207,0.6
2015-07-28 16:50:00,14.7,14.7,14.7,73.0,9.9,2.2,4.9,315,0.0,0.0,995.6,21.5,48.0,182,0.6
2015-07-28 16:55:00,14.7,14.7,14.7,73.0,9.9,2.7,5.8,225,0.0,0.0,995.6,21.4,47.0,179,0.5
2015-07-28 17:00:00,14.4,14.4,14.4,74.0,9.9,2.2,6.3,270,0.0,0.0,995.6,21.4,47.0,197,0.2
2015-07-28 17:05:00,14.5,14.5,14.5,74.0,9.9,2.2,8.9,247.5,0.0,0.0,995.5,21.4,47.0,152,0
2015-07-28 17:10:00,14.5,14.5,14.5,75.0,10.1,1.8,4.9,292.5,0.0,0.0,995.6,21.4,48.0,136,0
2015-07-28 17:15:00,14.4,14.4,14.4,75.0,10.1,2.2,5.4,270,0.0,0.0,995.6,21.5,48.0,194,0.2
2015-07-28 17:20:00,14.3,14.3,14.3,74.0,9.7,3.1,6.7,270,0.0,0.0,995.7,21.5,48.0,198,0
2015-07-28 17:25:00,14.5,14.5,14.5,75.0,10.1,1.8,3.6,292.5,0.0,0.0,995.8,21.6,48.0,478,0.3
2015-07-28 17:30:00,14.8,14.8,14.8,73.0,10.0,2.2,6.3,270,0.0,0.0,995.7,21.7,48.0,477,0.3
2015-07-28 17:35:00,14.8,14.8,14.8,72.0,9.8,3.1,6.3,225,0.0,0.0,995.7,21.8,48.0,290,0.2
2015-07-28 17:40:00,14.8,14.8,14.8,72.0,9.8,2.7,6.3,247.5,0.0,0.0,995.7,21.9,47.0,265,0.1
2015-07-28 17:45:00,14.7,14.7,14.7,72.0,9.7,2.7,5.4,247.5,0.0,0.0,995.8,22.0,47.0,149,0
2015-07-28 17:50:00,14.5,14.5,14.5,73.0,9.7,2.2,5.4,292.5,0.0,0.0,995.9,22.1,47.0,129,0
2015-07-28 17:55:00,14.4,14.4,14.4,74.0,9.9,1.8,3.6,247.5,0.0,0.0,995.9,22.1,47.0,113,0
2015-07-28 18:00:00,14.4,14.4,14.4,74.0,9.9,2.2,4.9,292.5,0.0,0.0,995.9,22.1,47.0,158,0
2015-07-28 18:05:00,14.5,14.5,14.5,73.0,9.7,2.7,6.3,247.5,0.0,0.0,996.0,22.1,47.0,218,0
2015-07-28 18:10:00,14.4,14.4,14.4,72.0,9.5,3.6,8.5,270,0.0,0.0,996.0,22.2,47.0,109,0
2015-07-28 18:15:00,14.3,14.3,14.3,73.0,9.5,2.2,4.9,247.5,0.0,0.0,996.1,22.2,47.0,70,0
2015-07-28 18:20:00,14.1,14.1,14.1,73.0,9.3,2.7,6.3,270,0.0,0.0,996.0,22.2,47.0,50,0
2015-07-28 18:25:00,13.8,13.8,13.8,74.0,9.3,3.6,8.0,270,0.0,0.0,996.1,22.1,47.0,51,0
2015-07-28 18:30:00,13.6,13.6,13.6,74.0,9.1,3.6,8.9,337.5,0.0,0.0,996.1,22.1,47.0,58,0
2015-07-28 18:35:00,13.4,13.4,13.4,76.0,9.3,2.2,4.9,315,0.0,0.0,996.1,22.1,47.0,71,0
2015-07-28 18:40:00,13.4,13.4,13.4,78.0,9.6,1.8,4.5,315,0.0,0.0,996.1,22.1,47.0,133,0
2015-07-28 18:45:00,13.5,13.5,13.5,77.0,9.5,2.2,4.9,202.5,0.0,0.0,996.1,22.2,47.0,162,0
2015-07-28 18:50:00,13.7,13.7,13.7,77.0,9.7,2.2,4.5,225,0.0,0.0,996.1,22.2,47.0,152,0
2015-07-28 18:55:00,13.8,13.8,13.8,77.0,9.8,1.8,4.5,292.5,0.0,0.0,996.2,22.3,47.0,136,0
2015-07-28 19:00:00,13.8,13.8,13.8,76.0,9.7,1.8,4.9,225,0.0,0.0,996.3,22.3,47.0,127,0
2015-07-28 19:05:00,13.8,13.8,13.8,76.0,9.7,2.2,5.4,247.5,0.0,0.0,996.4,22.4,47.0,106,0
2015-07-28 19:10:00,13.8,13.8,13.8,76.0,9.6,2.7,6.7,270,0.0,0.0,996.4,22.4,47.0,68,0
2015-07-28 19:15:00,13.7,13.7,13.7,76.0,9.5,2.2,7.2,247.5,0.0,0.0,996.3,22.4,46.0,70,0
2015-07-28 19:20:00,13.7,13.7,13.7,75.0,9.3,2.7,8.5,292.5,0.0,0.0,996.3,22.4,46.0,51,0
2015-07-28 19:25:00,13.6,13.6,13.6,75.0,9.2,3.1,6.3,247.5,0.0,0.0,996.3,22.4,46.0,43,0
2015-07-28 19:30:00,13.5,13.5,13.5,76.0,9.4,2.2,4.9,270,0.0,0.0,996.2,22.4,46.0,34,0
2015-07-28 19:35:00,13.4,13.4,13.4,76.0,9.2,1.3,4.5,270,0.0,0.0,996.3,22.4,46.0,26,0
2015-07-28 19:40:00,13.3,13.3,13.3,76.0,9.2,2.2,5.4,247.5,0.0,0.0,996.3,22.3,46.0,20,0
2015-07-28 19:45:00,13.2,13.2,13.2,76.0,9.1,2.2,4.5,292.5,0.0,0.0,996.3,22.3,46.0,14,0
2015-07-28 19:50:00,13.1,13.1,13.1,77.0,9.2,2.2,4.9,270,0.0,0.0,996.3,22.3,47.0,12,0
2015-07-28 19:55:00,13.1,13.1,13.1,77.0,9.1,1.3,4.5,247.5,0.0,0.0,996.4,22.3,47.0,8,0
2015-07-28 20:00:00,12.9,12.9,12.9,77.0,9.0,0.9,4.9,292.5,0.0,0.0,996.4,22.2,47.0,6,0
2015-07-28 20:05:00,12.8,12.8,12.8,78.0,9.1,1.3,4.0,315,0.0,0.0,996.6,22.2,47.0,5,0
2015-07-28 20:10:00,12.7,12.7,12.7,78.0,9.0,0.9,3.1,225,0.0,0.0,996.6,22.2,47.0,0,0
2015-07-28 20:15:00,12.7,12.7,12.7,78.0,8.9,1.8,4.9,292.5,0.0,0.0,996.6,22.2,47.0,0,0
2015-07-28 20:20:00,12.6,12.6,12.6,79.0,9.0,1.3,5.4,292.5,0.0,0.0,996.6,22.1,47.0,0,0
2015-07-28 20:25:00,12.5,12.5,12.5,79.0,9.0,1.3,4.5,337.5,0.0,0.0,996.7,22.1,47.0,0,0
2015-07-28 20:30:00,12.4,12.4,12.4,79.0,8.8,1.3,4.0,292.5,0.0,0.0,996.7,22.1,47.0,0,0
2015-07-28 20:35:00,12.3,12.3,12.3,79.0,8.8,1.3,4.0,270,0.0,0.0,996.8,22.1,47.0,0,0
2015-07-28 20:40:00,12.3,12.3,12.3,80.0,8.9,0.9,3.1,270,0.0,0.0,996.8,22.0,47.0,0,0
2015-07-28 20:45:00,12.2,12.2,12.2,80.0,8.9,1.3,3.6,270,0.0,0.0,996.9,22.0,47.0,0,0
2015-07-28 20:50:00,12.2,12.2,12.2,80.0,8.8,0.4,2.2,270,0.0,0.0,996.9,22.0,47.0,0,0
2015-07-28 20:55:00,12.1,12.1,12.1,80.0,8.8,0.9,3.1,270,0.0,0.0,996.8,22.0,47.0,0,0
2015-07-28 21:00:00,12.1,12.1,12.1,80.0,8.8,0.4,2.7,247.5,0.0,0.0,996.9,22.0,47.0,0,0
2015-07-28 21:05:00,12.1,12.1,12.1,81.0,8.9,0.4,2.2,247.5,0.0,0.0,996.9,21.9,47.0,0,0
2015-07-28 21:10:00,12.0,12.0,12.0,81.0,8.8,0.4,2.2,247.5,0.0,0.0,996.9,21.9,47.0,0,0
2015-07-28 21:15:00,11.9,11.9,11.9,81.0,8.8,0.4,2.7,247.5,0.0,0.0,996.8,21.9,48.0,0,0
2015-07-28 21:20:00,11.9,11.9,11.9,81.0,8.7,1.3,3.6,247.5,0.0,0.0,996.9,21.9,48.0,0,0
2015-07-28 21:25:00,11.8,11.8,11.8,81.0,8.7,0.4,4.0,225,0.0,0.0,996.8,21.9,48.0,0,0
2015-07-28 21:30:00,11.8,11.8,11.8,82.0,8.8,0.9,3.1,247.5,0.0,0.0,996.9,21.9,48.0,0,0
2015-07-28 21:35:00,11.8,11.8,11.8,82.0,8.8,1.3,3.1,270,0.0,0.0,996.9,21.9,48.0,0,0
2015-07-28 21:40:00,11.7,11.7,11.7,82.0,8.8,0.4,3.1,225,0.0,0.0,996.9,21.9,48.0,0,0
2015-07-28 21:45:00,11.7,11.7,11.7,82.0,8.7,0.0,2.7,0,0.0,0.0,996.9,21.9,48.0,0,0
2015-07-28 21:50:00,11.6,11.6,11.6,82.0,8.6,0.4,2.7,225,0.0,0.0,997.1,21.9,48.0,0,0
2015-07-28 21:55:00,11.6,11.6,11.6,82.0,8.6,0.4,3.6,270,0.0,0.0,997.1,21.9,48.0,0,0
2015-07-28 22:00:00,11.6,11.6,11.6,82.0,8.6,0.4,2.2,247.5,0.0,0.0,997.0,21.9,48.0,0,0
2015-07-28 22:05:00,11.5,11.5,11.5,82.0,8.5,0.4,2.7,247.5,0.0,0.0,997.0,21.9,48.0,0,0
2015-07-28 22:10:00,11.5,11.5,11.5,82.0,8.5,0.0,1.3,0,0.0,0.0,997.0,21.9,48.0,0,0
2015-07-28 22:15:00,11.4,11.4,11.4,82.0,8.5,0.4,2.7,225,0.0,0.0,997.1,21.9,48.0,0,0
2015-07-28 22:20:00,11.4,11.4,11.4,82.0,8.5,0.0,0.4,0,0.0,0.0,997.1,21.9,48.0,0,0
2015-07-28 22:25:00,11.4,11.4,11.4,82.0,8.5,0.0,0.4,0,0.0,0.0,997.0,21.9,48.0,0,0